When you browse on this site, cookies collect data to enhance your experience and personalize the content and advertising you see.
Visit our Privacy Policy to learn more. By continuing to use the site, you agree to this use of cookies and data.
  • In Germany
  • List of Countries
  • For 7 days
  • Water Temperature
  • Weather Map
  • Weather Widgets
  • user-avatar
    Login

    Hourly Weather Albany

    Today, 23 September, Monday

    Time Temperature Precipitation Wind Pressure Humidity
    00:00 +8°C° 0 mm 2 mps 770 mmHg 84%
    01:00 +8°C° 0 mm 2 mps 770 mmHg 84%
    02:00 +7°C° 0 mm 3 mps 769 mmHg 85%
    03:00 +7°C° 0 mm 3 mps 769 mmHg 85%
    04:00 +7°C° 0 mm 3 mps 769 mmHg 85%
    05:00 +7°C° 0 mm 3 mps 769 mmHg 85%
    06:00 +8°C° 0 mm 3 mps 769 mmHg 81%
    07:00 +9°C° 0 mm 3 mps 769 mmHg 78%
    08:00 +11°C° 0 mm 3 mps 769 mmHg 75%
    09:00 +13°C° 0 mm 3 mps 769 mmHg 70%
    10:00 +16°C° 0 mm 3 mps 768 mmHg 64%
    11:00 +17°C° 0 mm 3 mps 768 mmHg 59%
    12:00 +18°C° 0 mm 3 mps 767 mmHg 58%
    13:00 +19°C° 0 mm 4 mps 767 mmHg 57%
    14:00 +20°C° 0 mm 4 mps 766 mmHg 58%
    15:00 +19°C° 0 mm 4 mps 765 mmHg 63%
    16:00 +19°C° 0 mm 4 mps 765 mmHg 68%
    17:00 +18°C° 0 mm 4 mps 765 mmHg 74%
    18:00 +15°C° 0 mm 4 mps 765 mmHg 79%
    19:00 +14°C° 0 mm 5 mps 765 mmHg 84%
    20:00 +12°C° 0 mm 5 mps 765 mmHg 88%
    21:00 +12°C° 0 mm 5 mps 765 mmHg 88%
    22:00 +12°C° 0 mm 5 mps 765 mmHg 87%
    23:00 +10°C° 0 mm 5 mps 765 mmHg 86%

    Tomorrow, 24 September, Tuesday

    Time Temperature Precipitation Wind Pressure Humidity
    00:00 +10°C° 0 mm 5 mps 764 mmHg 86%
    01:00 +11°C° 0 mm 4 mps 763 mmHg 86%
    02:00 +11°C° 0 mm 4 mps 763 mmHg 86%
    03:00 +11°C° 0 mm 4 mps 762 mmHg 83%
    04:00 +11°C° 0 mm 3 mps 762 mmHg 80%
    05:00 +11°C° 0 mm 3 mps 761 mmHg 77%
    06:00 +12°C° 0 mm 4 mps 761 mmHg 71%
    07:00 +14°C° 0 mm 4 mps 761 mmHg 65%
    08:00 +15°C° 0 mm 5 mps 761 mmHg 59%
    09:00 +17°C° 0 mm 5 mps 760 mmHg 55%
    10:00 +20°C° 0 mm 6 mps 760 mmHg 51%
    11:00 +22°C° 0 mm 7 mps 760 mmHg 48%
    12:00 +23°C° 0 mm 7 mps 759 mmHg 48%
    13:00 +24°C° 0 mm 7 mps 759 mmHg 48%
    14:00 +24°C° 0 mm 7 mps 758 mmHg 48%
    15:00 +23°C° 0 mm 6 mps 758 mmHg 54%
    16:00 +22°C° 0 mm 4 mps 758 mmHg 61%
    17:00 +20°C° 0 mm 3 mps 758 mmHg 68%
    18:00 +18°C° 0 mm 3 mps 758 mmHg 73%
    19:00 +16°C° 0 mm 2 mps 758 mmHg 78%
    20:00 +14°C° 0 mm 2 mps 759 mmHg 84%
    21:00 +13°C° 0 mm 2 mps 759 mmHg 84%
    22:00 +13°C° 0 mm 2 mps 759 mmHg 85%
    23:00 +12°C° 0 mm 2 mps 758 mmHg 85%

    Day after tomorrow, 25 September, Wednesday

    Time Temperature Precipitation Wind Pressure Humidity
    00:00 +10°C° 0 mm 3 mps 758 mmHg 83%
    01:00 +10°C° 0 mm 3 mps 758 mmHg 81%
    02:00 +10°C° 0 mm 4 mps 758 mmHg 78%
    03:00 +10°C° 0 mm 4 mps 758 mmHg 82%
    04:00 +10°C° 0 mm 4 mps 758 mmHg 86%
    05:00 +10°C° 0 mm 4 mps 758 mmHg 90%
    06:00 +11°C° 0 mm 4 mps 758 mmHg 89%
    07:00 +12°C° 0 mm 4 mps 759 mmHg 88%
    08:00 +13°C° 0 mm 4 mps 759 mmHg 86%
    09:00 +15°C° 0.1 mm 4 mps 759 mmHg 82%
    10:00 +16°C° 0.1 mm 5 mps 759 mmHg 78%
    11:00 +17°C° 0.1 mm 5 mps 760 mmHg 73%
    12:00 +17°C° 0.1 mm 5 mps 759 mmHg 72%
    13:00 +17°C° 0.1 mm 5 mps 759 mmHg 70%
    14:00 +17°C° 0.1 mm 5 mps 759 mmHg 69%
    15:00 +16°C° 0 mm 5 mps 759 mmHg 70%
    16:00 +15°C° 0 mm 5 mps 759 mmHg 72%
    17:00 +15°C° 0 mm 5 mps 760 mmHg 73%
    18:00 +13°C° 0 mm 4 mps 760 mmHg 77%
    19:00 +12°C° 0 mm 4 mps 760 mmHg 81%
    20:00 +11°C° 0 mm 3 mps 761 mmHg 85%
    21:00 +11°C° 0 mm 3 mps 761 mmHg 85%
    22:00 +12°C° 0 mm 2 mps 761 mmHg 85%
    23:00 +12°C° 0 mm 2 mps 761 mmHg 84%

    26 September, Thursday

    Time Temperature Precipitation Wind Pressure Humidity
    00:00 +10°C° 0 mm 2 mps 761 mmHg 86%
    01:00 +10°C° 0 mm 2 mps 761 mmHg 88%
    02:00 +9°C° 0 mm 2 mps 761 mmHg 89%
    03:00 +9°C° 0 mm 2 mps 761 mmHg 90%
    04:00 +9°C° 0 mm 2 mps 761 mmHg 90%
    05:00 +9°C° 0 mm 3 mps 761 mmHg 91%
    06:00 +10°C° 0.1 mm 3 mps 761 mmHg 88%
    07:00 +11°C° 0.1 mm 3 mps 762 mmHg 85%
    08:00 +12°C° 0.1 mm 3 mps 762 mmHg 82%
    09:00 +12°C° 0.4 mm 3 mps 762 mmHg 85%
    10:00 +12°C° 0.4 mm 3 mps 762 mmHg 88%
    11:00 +12°C° 0.4 mm 3 mps 763 mmHg 92%
    12:00 +12°C° 0.4 mm 4 mps 762 mmHg 92%
    13:00 +12°C° 0.4 mm 4 mps 762 mmHg 92%
    14:00 +12°C° 0.4 mm 4 mps 762 mmHg 92%
    15:00 +12°C° 0.1 mm 4 mps 762 mmHg 92%
    16:00 +12°C° 0.1 mm 4 mps 762 mmHg 91%
    17:00 +12°C° 0.1 mm 4 mps 762 mmHg 91%
    18:00 +12°C° 0 mm 4 mps 763 mmHg 90%
    19:00 +12°C° 0 mm 4 mps 763 mmHg 89%
    20:00 +11°C° 0 mm 4 mps 763 mmHg 88%
    21:00 +11°C° 0 mm 4 mps 763 mmHg 87%
    22:00 +11°C° 0 mm 4 mps 763 mmHg 86%
    23:00 +11°C° 0 mm 4 mps 763 mmHg 85%

    27 September, Friday

    Time Temperature Precipitation Wind Pressure Humidity
    00:00 +11°C° 0 mm 4 mps 763 mmHg 85%
    01:00 +11°C° 0 mm 3 mps 763 mmHg 85%
    02:00 +11°C° 0 mm 3 mps 762 mmHg 85%
    03:00 +11°C° 0 mm 3 mps 762 mmHg 86%
    04:00 +11°C° 0 mm 3 mps 762 mmHg 86%
    05:00 +11°C° 0 mm 3 mps 762 mmHg 86%
    06:00 +12°C° 0 mm 3 mps 762 mmHg 85%
    07:00 +12°C° 0 mm 3 mps 762 mmHg 85%
    08:00 +13°C° 0 mm 3 mps 762 mmHg 84%
    09:00 +14°C° 0 mm 4 mps 762 mmHg 80%
    10:00 +15°C° 0 mm 4 mps 762 mmHg 77%
    11:00 +17°C° 0 mm 4 mps 761 mmHg 73%
    12:00 +17°C° 0.1 mm 4 mps 761 mmHg 74%
    13:00 +17°C° 0.1 mm 4 mps 760 mmHg 74%
    14:00 +17°C° 0.1 mm 4 mps 760 mmHg 74%
    15:00 +16°C° 0 mm 5 mps 760 mmHg 77%
    16:00 +15°C° 0 mm 5 mps 760 mmHg 80%
    17:00 +15°C° 0 mm 5 mps 759 mmHg 82%
    18:00 +14°C° 0 mm 4 mps 760 mmHg 86%
    19:00 +13°C° 0 mm 4 mps 760 mmHg 91%
    20:00 +12°C° 0 mm 3 mps 760 mmHg 95%
    21:00 +12°C° 0.1 mm 3 mps 760 mmHg 95%
    22:00 +14°C° 0.1 mm 2 mps 760 mmHg 94%
    23:00 +14°C° 0.1 mm 2 mps 761 mmHg 94%

    28 September, Saturday

    Time Temperature Precipitation Wind Pressure Humidity
    00:00 +13°C° 0.1 mm 2 mps 760 mmHg 94%
    01:00 +13°C° 0.1 mm 1 mps 760 mmHg 94%
    02:00 +12°C° 0.1 mm 1 mps 760 mmHg 94%
    03:00 +12°C° 0.1 mm 1 mps 760 mmHg 95%
    04:00 +11°C° 0.1 mm 1 mps 760 mmHg 95%
    05:00 +10°C° 0.1 mm 2 mps 760 mmHg 95%
    06:00 +12°C° 0 mm 1 mps 760 mmHg 93%
    07:00 +14°C° 0 mm 1 mps 760 mmHg 91%
    08:00 +15°C° 0 mm 1 mps 761 mmHg 88%
    09:00 +16°C° 0.1 mm 1 mps 761 mmHg 84%
    10:00 +18°C° 0.1 mm 1 mps 761 mmHg 79%
    11:00 +19°C° 0.1 mm 1 mps 761 mmHg 74%
    12:00 +18°C° 0.1 mm 2 mps 761 mmHg 76%
    13:00 +18°C° 0.1 mm 2 mps 761 mmHg 77%
    14:00 +17°C° 0.1 mm 3 mps 760 mmHg 79%
    15:00 +17°C° 0.1 mm 3 mps 760 mmHg 81%
    16:00 +17°C° 0.1 mm 2 mps 760 mmHg 82%
    17:00 +16°C° 0.1 mm 2 mps 760 mmHg 83%
    18:00 +15°C° 0 mm 2 mps 761 mmHg 86%
    19:00 +14°C° 0 mm 2 mps 761 mmHg 89%
    20:00 +13°C° 0 mm 2 mps 762 mmHg 92%
    21:00 +13°C° 0 mm 2 mps 761 mmHg 93%
    22:00 +11°C° 0 mm 3 mps 761 mmHg 93%
    23:00 +11°C° 0 mm 3 mps 761 mmHg 94%
    Show more